Location: Lourdes
(43.1000°N, 0.0500°W)
Time: 12:23:49
(UTC+00:00)

Cosmos 2369 Rocket - Pass Details

Date: 30 November 2020
Orbit: 829 x 852 km, 71.0° (Epoch: 25 January)

Event Time Altitude Azimuth Distance (km) Brightness Sun altitude
Rises 18:06:21 0° 335° (NNW) 3,421 5.5 -17.7°
Reaches altitude 10° 18:08:49 10° 337° (NNW) 2,479 4.7 -18.2°
Maximum altitude 18:14:32 82° 65° (ENE) 856 2.1 -19.2°
Drops below altitude 10° 18:20:10 10° 154° (SSE) 2,448 4.5 -20.2°
Sets 18:22:35 0° 155° (SSE) 3,375 5.2 -20.6°
